Tracking 18980 objects as of 18-Feb-2018
HD Live streaming from Space Station
objects crossing your sky now

FENGYUN 1C DEB

Track FENGYUN 1C DEB now!
10-day predictions


NORAD ID: 36237
Int'l Code: 1999-025DVN
Perigee: 649.8 km
Apogee: 734.1 km
Inclination: 98.9 °
Period: 98.5 minutes
Semi major axis: 7062 km
RCS: 0.0136 m2 (small)
Launch date: May 10, 1999
Source: People's Republic of China (PRC)
Launch site: Taiyaun Space Center, China (TSC)

Note: This is SATELLITE DEBRIS
aabbcc
Your satellite tracking list
Your tracking list is empty




NASA's NSSDC Master Catalog

Two Line Element Set (TLE):
1 36237U 99025DVN 18044.88780743 +.00002087 +00000-0 +41181-3 0  9993
2 36237 098.9331 277.2766 0059613 276.3450 083.0962 14.62592997487623
Source of the keplerian elements: AFSPC